Location: Wells
(51.2093°N, 2.6446°W)
Time: 17:45:23
(UTC+01:00)

Oscar 19 - Pass Details

Date: 14 March 2026
Orbit: 769 x 787 km, 98.9° (Epoch: 18 April)

Event Time Altitude Azimuth Distance (km) Brightness Sun altitude
Rises 18:55:53 0° 190° (S) 3,253 13.9 -7.5°
Reaches altitude 10° 18:58:24 10° 199° (SSW) 2,327 13.3 -7.8°
Maximum altitude 19:03:02 34° 264° (W) 1,271 12.6 -8.6°
Drops below altitude 10° 19:07:41 10° 329° (NNW) 2,333 13.7 -9.3°
Sets 19:10:13 0° 338° (NNW) 3,263 14.3 -9.7°
